Temp
-6 -5 -5 -5 -4 -4 -4 -5 -2 -2 -2 -2 -2 -2 -0 -0 0 1 1 2 2 2 2 2 2 2 2 2 2 2 2 2 1 0 -0 -1 -0 0 1 2 3 3 3 3 4
-6 -6 -5 -5 -5 -4 -4 -5 -4 -2 -1 -1 -2 -2 -2 -1 -0 1 1 2 2 2 2 2 2 1 1 1 1 1 1 1 -0 -1 -1 -1 -1 -0 0 1 2 2 3 3 3
-6 -6 -6 -6 -5 -5 -5 -5 -5 -3 -2 -3 -2 -2 -2 -1 -0 0 1 1 1 1 1 1 1 0 1 1 0 0 0 0 -1 -2 -2 -1 0 0 0 1 2 2 2 2 2
-7 -6 -7 -6 -6 -5 -5 -6 -5 -2 -2 -4 -2 -2 -2 -1 -1 -0 -0 0 0 0 0 0 -0 -0 -0 -1 -1 -1 -1 -2 -0 -1 -1 -1 -0 0 -0 1 -0 2 2 2 2
-7 -6 -7 -6 -6 -5 -5 -6 -5 -4 -4 -3 -2 -2 -2 -2 -1 -1 -1 -1 -0 -0 -0 -1 -2 -1 -2 -2 -2 -2 -2 -2 -1 -0 -1 -1 -0 -1 1 -1 -0 0 1 2 2
-6 -6 -6 -6 -6 -5 -6 -5 -4 -4 -3 -3 -2 -2 -2 -1 -2 -1 -1 -1 -1 -0 -2 -2 -2 -3 -3 -4 -3 -3 -3 -2 -1 -2 -1 -1 0 0 -1 -1 0 1 1 2 2
-6 -6 -6 -6 -5 -5 -6 -4 -5 -4 -3 -2 -3 -3 -2 -2 -2 -2 -1 -1 -1 -2 -3 -4 -4 -4 -4 -3 -3 -3 -2 -2 -2 -2 -1 -1 1 -1 -1 1 1 1 2 2 2
-7 -6 -6 -6 -6 -5 -6 -5 -4 -3 -4 -3 -2 -2 -2 -2 -2 -2 -2 -2 -3 -3 -3 -5 -5 -4 -4 -4 -3 -3 -3 -3 -2 -1 -2 -1 1 -1 -1 -0 1 1 2 2 3
-7 -7 -7 -6 -5 -5 -5 -4 -4 -4 -3 -2 -3 -3 -2 -2 -2 -2 -3 -3 -3 -3 -4 -5 -4 -4 -4 -4 -4 -4 -4 -3 -2 -2 -2 -3 -1 -1 -2 -1 -0 0 1 1 2
-5 -5 -5 -5 -5 -5 -5 -5 -5 -4 -3 -3 -2 -2 -2 -2 -3 -3 -2 -3 -3 -4 -4 -4 -4 -4 -4 -4 -4 -4 -4 -4 -4 -2 -3 -2 -1 -1 -2 -0 -0 0 1 1 2
-5 -4 -5 -5 -6 -5 -4 -4 -3 -3 -3 -2 -3 -2 -2 -2 -2 -3 -3 -3 -3 -4 -4 -4 -4 -4 -5 -5 -4 -4 -5 -4 -3 -3 -3 -2 -2 -1 -1 -1 -0 1 1 1 2
-5 -4 -4 -5 -5 -4 -3 -2 -2 -2 -3 -3 -2 -2 -2 -2 -3 -3 -3 -3 -3 -4 -4 -4 -4 -4 -5 -5 -5 -5 -5 -3 -3 -3 -3 -2 -1 -1 -1 -1 -1 -1 0 -1 0
-5 -5 -4 -4 -3 -3 -2 -2 -2 -1 -2 -3 -2 -2 -2 -2 -3 -3 -3 -3 -3 -3 -5 -5 -4 -4 -4 -4 -5 -5 -5 -4 -5 -3 -3 -3 -1 -1 0 -1 -0 1 -1 -0 0
-3 -4 -3 -2 -2 -1 -1 -1 -1 -1 -1 -3 -2 -2 -2 -2 -2 -2 -3 -3 -4 -4 -4 -4 -5 -5 -5 -5 -6 -5 -5 -5 -5 -4 -3 -3 -3 -1 -1 0 -1 -1 -1 0 1
-0 -1 -1 -2 -2 -2 -2 -2 -1 -1 -6 -2 -2 -2 -2 -2 -2 -3 -3 -3 -3 -4 -5 -4 -5 -5 -4 -5 -5 -6 -5 -5 -5 -4 -4 -4 -4 -2 -2 -0 -1 -1 -1 -0 0
-1 0 0 0 -0 -2 -2 -2 -1 -1 -5 -2 -3 -2 -2 -2 -2 -3 -3 -3 -3 -3 -4 -4 -5 -5 -5 -5 -5 -5 -5 -5 -5 -4 -4 -4 -4 -2 -4 -4 -2 -2 -1 -1 -0
0 -1 -0 0 -0 -1 -1 0 -0 -4 -3 -3 -3 -3 -3 -3 -3 -3 -3 -3 -4 -4 -4 -4 -4 -5 -5 -5 -5 -5 -5 -5 -5 -5 -4 -3 -3 -4 -4 -4 -4 -3 -1 -2 -1
1 1 -1 0 1 1 1 0 -1 -4 -3 -2 -2 -2 -2 -3 -3 -3 -3 -3 -4 -5 -5 -5 -4 -4 -5 -5 -5 -5 -5 -5 -4 -4 -4 -3 -4 -3 -4 -4 -4 -3 -2 -1 -1
1 1 1 1 1 1 2 2 -3 -2 -2 -2 -2 -2 -2 -2 -3 -3 -3 -4 -4 -5 -5 -6 -4 -4 -4 -4 -4 -4 -5 -5 -5 -5 -5 -4 -3 -3 -3 -3 -3 -3 -2 -2 -1
2 1 2 2 2 2 3 1 -2 -2 -2 -2 -2 -2 -2 -2 -2 -2 -3 -4 -4 -4 -5 -5 -4 -3 -3 -4 -4 -4 -4 -5 -5 -7 -5 -5 -4 -4 -2 -3 -3 -3 -2 -2 -1
2 2 2 2 2 2 3 0 -1 -1 -1 -1 -2 -2 -2 -3 -2 -3 -2 -3 -3 -4 -4 -5 -5 -2 -3 -3 -3 -3 -4 -4 -6 -5 -6 -6 -3 -2 -3 -3 -4 -3 -3 -3 -2
2 2 3 2 2 2 2 1 1 0 0 -0 -1 -1 -1 -1 -2 -2 -3 -3 -3 -3 -3 -4 -3 -3 -3 -3 -3 -4 -4 -4 -5 -5 -6 -5 -4 -2 -2 -3 -3 -3 -3 -2 -3
2 2 2 3 2 2 2 2 1 1 1 1 1 0 -0 -1 -1 -1 -2 -2 -2 -3 -2 -3 -3 -3 -2 -3 -3 -3 -3 -4 -4 -4 -4 -6 -3 -2 -2 -2 -3 -3 -3 -2 -2
3 3 3 2 2 2 2 2 1 1 0 0 -0 1 0 0 -0 -0 -1 -1 -1 -2 -2 -3 -2 -3 -3 -2 -2 -2 -3 -3 -3 -4 -4 -3 -2 -3 -2 -2 -3 -3 -2 -2 -2
3 3 2 3 2 2 2 1 1 1 1 1 1 1 0 1 1 0 0 -0 -0 -1 -2 -2 -2 -2 -2 -2 -2 -2 -2 -2 -3 -3 -3 -3 -2 -2 -3 -2 -2 -2 -2 -2 -2
3 3 2 2 2 2 2 2 2 1 1 1 1 1 0 0 0 0 0 0 -0 -1 -1 -1 -2 -2 -1 -1 -2 -1 -1 -1 -2 -2 -1 -2 -2 -2 -3 -3 -2 -1 -2 -2 -2
2 2 3 2 2 2 2 2 2 1 1 1 1 1 1 1 0 0 -0 -0 0 -0 -1 -1 -1 -2 -1 -1 -1 -0 1 -0 -1 -1 -1 -1 -1 -2 -3 -3 -3 -2 -2 -2 -2
Height
3027 3025 3023 3022 3022 3021 3022 3026 3034 3041 3048 3053 3057 3062 3063 3067 3071 3073 3073 3076 3078 3079 3080 3081 3083 3084 3084 3086 3087 3087 3088 3088 3090 3089 3089 3089 3089 3090 3090 3090 3091 3092 3090 3093 3096
3021 3019 3018 3017 3016 3017 3018 3021 3030 3038 3045 3050 3054 3061 3063 3066 3069 3072 3074 3074 3076 3078 3079 3080 3081 3081 3083 3083 3085 3085 3085 3086 3087 3086 3086 3085 3086 3085 3084 3085 3087 3086 3087 3085 3085
3018 3015 3013 3012 3012 3013 3015 3020 3027 3035 3043 3048 3053 3059 3062 3065 3069 3071 3072 3073 3075 3077 3078 3079 3079 3079 3079 3080 3081 3081 3084 3083 3085 3082 3081 3082 3082 3081 3080 3080 3084 3080 3078 3076 3074
3014 3012 3009 3009 3009 3012 3015 3019 3025 3033 3042 3048 3051 3058 3061 3064 3071 3069 3071 3072 3073 3075 3076 3077 3076 3077 3076 3078 3078 3079 3081 3079 3080 3079 3078 3078 3077 3077 3076 3078 3072 3072 3069 3069 3070
3010 3008 3007 3007 3009 3013 3016 3020 3026 3033 3040 3048 3054 3058 3060 3065 3067 3069 3070 3071 3073 3074 3075 3075 3075 3074 3074 3075 3075 3075 3077 3076 3075 3074 3074 3073 3074 3072 3075 3069 3067 3065 3063 3062 3061
3009 3007 3008 3009 3012 3014 3018 3023 3028 3032 3041 3048 3054 3058 3061 3065 3066 3069 3070 3071 3072 3072 3072 3073 3073 3072 3072 3073 3074 3074 3073 3072 3072 3072 3070 3070 3070 3069 3068 3063 3064 3062 3059 3057 3055
3008 3006 3009 3012 3012 3016 3021 3025 3031 3037 3044 3048 3054 3059 3062 3066 3066 3068 3069 3070 3070 3070 3070 3071 3071 3071 3071 3072 3072 3071 3069 3069 3067 3069 3068 3066 3066 3065 3063 3060 3058 3055 3053 3050 3047
3011 3011 3012 3014 3017 3020 3024 3028 3035 3042 3047 3052 3057 3060 3062 3064 3066 3068 3069 3069 3069 3070 3070 3070 3069 3070 3070 3070 3069 3068 3067 3067 3068 3066 3065 3064 3059 3061 3058 3054 3050 3046 3043 3039 3037
3016 3016 3017 3021 3022 3027 3030 3034 3040 3045 3050 3055 3059 3061 3062 3066 3067 3068 3068 3069 3069 3069 3069 3068 3069 3068 3069 3067 3067 3066 3066 3065 3064 3064 3063 3062 3056 3058 3054 3050 3045 3039 3035 3029 3025
3024 3025 3025 3027 3029 3033 3037 3041 3045 3050 3054 3057 3061 3065 3066 3067 3067 3068 3069 3069 3069 3069 3068 3068 3067 3067 3067 3067 3067 3065 3064 3062 3061 3063 3060 3059 3056 3054 3050 3046 3040 3033 3026 3020 3015
3030 3031 3032 3033 3037 3040 3044 3047 3054 3057 3059 3060 3063 3064 3066 3068 3069 3069 3069 3069 3068 3068 3067 3066 3066 3066 3065 3065 3064 3062 3061 3060 3060 3061 3056 3055 3052 3051 3049 3043 3035 3027 3018 3010 3003
3038 3039 3040 3041 3046 3049 3052 3055 3056 3060 3062 3063 3066 3068 3069 3070 3070 3069 3069 3069 3067 3066 3065 3066 3063 3064 3063 3062 3061 3059 3058 3057 3056 3057 3055 3052 3049 3048 3045 3039 3029 3019 3011 3002 2992
3044 3042 3048 3052 3054 3056 3058 3060 3061 3063 3064 3069 3071 3071 3072 3072 3071 3070 3070 3068 3067 3065 3064 3062 3062 3061 3060 3060 3058 3057 3055 3055 3054 3052 3052 3050 3047 3046 3044 3036 3027 3017 3008 2999 2988
3058 3050 3049 3054 3060 3062 3063 3064 3065 3066 3069 3075 3074 3074 3074 3072 3073 3071 3069 3070 3066 3063 3062 3061 3061 3060 3059 3058 3057 3053 3053 3052 3053 3053 3052 3051 3049 3044 3038 3030 3023 3012 3002 2993 2986
3070 3068 3064 3057 3058 3063 3066 3068 3068 3069 3073 3081 3078 3077 3076 3077 3076 3072 3071 3068 3065 3063 3063 3063 3060 3059 3058 3057 3055 3052 3050 3051 3052 3052 3053 3052 3051 3044 3036 3026 3018 3010 3001 2994 2986
3075 3077 3075 3077 3075 3074 3072 3070 3071 3074 3081 3085 3083 3081 3080 3078 3076 3074 3072 3069 3065 3062 3061 3061 3060 3059 3057 3055 3052 3050 3049 3050 3051 3052 3053 3051 3050 3044 3036 3032 3023 3014 3009 2999 2991
3086 3080 3082 3081 3081 3078 3077 3078 3075 3078 3091 3089 3086 3084 3083 3081 3078 3076 3073 3070 3067 3063 3062 3060 3060 3059 3058 3054 3053 3051 3050 3051 3055 3053 3052 3050 3049 3047 3043 3038 3030 3020 3013 3006 2999
3094 3091 3084 3084 3083 3081 3080 3080 3078 3087 3087 3088 3087 3085 3084 3082 3080 3078 3076 3073 3069 3067 3064 3062 3061 3060 3058 3055 3053 3051 3051 3050 3051 3051 3052 3050 3049 3047 3044 3041 3034 3026 3017 3009 3003
3097 3095 3091 3088 3085 3084 3083 3081 3085 3088 3090 3090 3089 3087 3085 3083 3081 3078 3076 3074 3072 3069 3068 3064 3062 3060 3058 3056 3055 3052 3052 3053 3051 3050 3052 3052 3050 3047 3046 3041 3035 3025 3018 3010 3007
3101 3099 3095 3092 3090 3088 3087 3086 3090 3092 3093 3092 3089 3087 3085 3084 3083 3079 3077 3075 3073 3071 3069 3068 3063 3061 3059 3057 3056 3054 3054 3053 3052 3054 3052 3052 3050 3047 3044 3040 3035 3028 3021 3016 3013
3104 3102 3098 3096 3095 3093 3092 3095 3094 3094 3093 3092 3091 3090 3088 3086 3083 3080 3079 3077 3073 3072 3069 3068 3068 3065 3061 3059 3057 3056 3053 3052 3053 3053 3054 3054 3048 3045 3044 3041 3037 3032 3028 3023 3018
3107 3105 3102 3099 3100 3096 3095 3095 3095 3094 3093 3092 3090 3089 3088 3086 3083 3082 3080 3078 3074 3072 3070 3068 3066 3064 3064 3060 3058 3056 3054 3052 3053 3054 3052 3052 3049 3044 3043 3042 3039 3036 3033 3029 3025
3109 3107 3105 3103 3103 3101 3098 3096 3095 3094 3093 3091 3090 3090 3088 3086 3083 3081 3079 3078 3075 3073 3071 3069 3067 3064 3063 3064 3060 3057 3055 3054 3053 3052 3050 3051 3048 3045 3043 3042 3040 3039 3037 3034 3031
3109 3108 3106 3104 3102 3101 3100 3098 3098 3097 3097 3095 3094 3091 3088 3086 3084 3081 3078 3076 3074 3073 3071 3069 3067 3066 3066 3063 3061 3058 3056 3054 3053 3051 3050 3047 3045 3044 3044 3042 3041 3039 3038 3036 3033
3106 3106 3105 3103 3100 3100 3099 3099 3097 3094 3093 3091 3090 3088 3086 3082 3080 3079 3078 3076 3074 3072 3070 3069 3066 3065 3062 3061 3059 3058 3056 3054 3053 3050 3048 3046 3043 3043 3042 3041 3040 3039 3037 3036 3035
3104 3102 3101 3099 3097 3097 3097 3097 3097 3096 3094 3092 3090 3087 3085 3083 3082 3078 3075 3073 3073 3072 3069 3067 3065 3062 3058 3056 3056 3055 3054 3053 3051 3049 3046 3044 3042 3041 3039 3039 3038 3037 3036 3035 3034
3100 3099 3097 3097 3095 3094 3094 3093 3092 3093 3093 3090 3089 3086 3083 3082 3079 3077 3075 3072 3070 3069 3068 3067 3064 3061 3056 3055 3053 3052 3050 3050 3049 3047 3045 3044 3042 3039 3038 3037 3036 3036 3035 3034 3033
Wind_Speed
28 27 21 18 18 8 11 24 21 24 21 19 14 8 10 12 11 8 6 8 8 8 10 11 10 11 12 11 11 12 13 12 13 12 9 13 18 19 22 25 27 30 36 35 37
29 25 26 12 12 6 6 16 18 20 23 17 13 8 9 9 12 9 6 8 10 10 11 12 12 13 14 14 14 15 15 12 9 13 17 19 20 20 24 23 23 25 25 28 33
25 23 20 14 6 2 1 12 16 19 24 20 13 9 10 8 12 9 7 8 10 9 8 8 10 11 13 13 14 16 13 14 10 14 17 19 20 22 25 25 20 25 25 27 33
25 21 17 10 7 2 4 12 20 20 22 19 17 12 9 7 6 8 6 8 7 6 6 7 9 10 10 10 12 12 11 13 9 12 19 21 24 24 24 19 17 24 28 31 32
25 14 15 6 13 6 6 17 21 25 22 20 11 8 8 10 8 6 7 8 4 4 6 6 7 8 9 7 10 12 9 11 13 16 18 19 18 20 14 16 15 21 28 32 33
19 14 14 9 11 9 19 21 24 25 25 19 14 8 8 10 6 5 5 4 5 6 4 4 7 8 6 6 10 15 16 13 13 12 11 15 15 15 9 18 18 21 27 31 33
17 13 13 13 10 14 26 22 25 21 16 13 14 9 7 8 6 4 3 4 4 4 6 5 5 3 7 8 8 11 19 15 6 3 11 14 12 8 15 18 24 28 31 34 33
24 22 16 15 16 20 22 25 32 22 15 12 13 6 8 7 8 6 3 2 2 5 4 4 5 4 8 11 13 15 13 12 14 10 12 16 17 15 25 27 27 34 32 32 36
24 22 23 21 22 20 26 33 29 22 20 15 9 9 10 7 8 5 3 3 4 4 6 3 6 9 10 11 12 11 10 10 13 14 11 19 26 24 24 27 32 36 37 37 32
34 33 26 21 23 20 18 17 24 19 12 10 11 10 10 7 5 2 2 3 4 4 5 5 8 8 9 12 8 12 15 15 18 17 20 20 20 22 27 29 32 36 38 39 40
32 31 25 25 28 18 17 17 19 18 12 14 14 14 12 9 5 2 1 4 7 6 5 8 11 11 11 12 15 14 13 17 19 19 21 21 23 13 28 26 28 32 36 43 44
30 29 29 31 28 24 21 18 17 21 23 20 16 12 9 7 5 5 7 8 8 7 7 11 13 6 9 14 16 13 16 20 25 8 24 23 21 8 27 27 32 34 31 34 41
29 30 30 31 29 28 22 18 19 24 22 19 13 10 9 9 8 7 9 10 11 11 8 11 8 8 10 8 11 15 18 19 17 19 15 13 12 6 21 25 30 26 19 29 28
27 30 33 32 27 24 24 25 21 15 10 12 9 10 9 7 9 9 10 13 14 12 12 5 8 9 12 10 12 22 9 5 10 8 5 11 5 7 26 29 35 30 25 28 25
31 29 28 29 26 26 24 16 8 3 5 6 11 9 9 8 7 11 12 17 16 10 9 6 10 10 13 10 17 18 9 7 8 6 6 6 3 5 30 35 41 34 36 30 17
28 26 25 22 23 18 13 8 5 3 7 7 8 9 9 10 10 11 14 20 13 12 6 9 7 8 15 15 11 15 4 3 1 1 0 8 3 8 31 36 38 37 32 27 14
23 24 21 16 11 10 11 10 7 11 5 6 8 10 10 12 11 14 16 19 15 8 9 8 3 10 11 9 4 6 4 2 3 1 2 5 1 7 23 28 33 34 18 33 23
15 14 10 7 7 8 11 9 12 9 9 5 7 9 10 14 10 16 14 16 14 13 9 9 4 10 12 13 6 7 5 2 3 2 1 3 4 6 18 23 28 29 29 22 28
13 11 9 7 6 8 8 7 7 6 7 7 9 8 9 13 11 13 13 13 14 14 9 7 2 9 10 12 7 4 5 4 1 3 1 3 5 3 12 18 27 31 32 25 24
17 15 13 11 9 9 7 14 11 9 7 10 8 9 11 14 12 13 13 10 14 12 9 8 5 8 7 9 8 5 5 1 1 2 1 1 3 6 14 20 25 31 32 32 20
12 11 13 13 11 9 13 14 10 8 8 8 10 11 13 15 14 11 12 9 15 10 9 8 4 6 5 8 11 10 5 3 3 1 1 0 5 6 11 16 21 24 29 30 28
12 8 8 8 7 5 11 10 7 7 8 8 9 11 12 16 9 12 11 12 13 14 9 8 6 4 3 6 8 10 11 8 1 1 2 2 4 2 7 11 14 17 20 24 27
12 9 7 7 6 8 8 7 7 7 7 9 10 12 14 14 8 10 13 12 13 12 10 10 7 6 3 3 4 5 9 9 2 1 3 1 2 2 4 6 8 10 13 17 21
14 9 9 7 7 7 8 6 7 8 8 10 9 12 15 14 15 9 13 10 11 13 10 6 6 4 2 4 6 5 7 7 5 3 3 6 4 4 4 5 4 5 6 10 14
12 9 11 12 12 8 7 6 6 6 6 8 7 9 9 8 11 12 13 12 11 10 11 10 5 8 7 6 5 6 5 7 7 7 5 6 10 6 5 5 6 4 2 4 6
11 11 12 11 8 8 9 9 8 8 9 8 10 11 11 11 11 12 11 9 5 11 11 10 8 17 13 6 9 10 8 7 8 8 10 11 11 4 4 3 4 6 6 3 2
14 13 13 10 9 12 13 13 12 12 9 9 11 12 13 13 15 15 13 9 8 8 10 10 12 15 4 7 14 8 1 3 5 7 8 9 9 9 5 4 4 3 7 9 7
Wind_Direction
319 321 304 293 260 252 277 229 226 211 201 218 226 247 220 217 232 251 252 245 251 248 240 241 242 247 250 255 253 255 259 275 295 300 289 284 283 277 270 267 262 265 264 270 263
325 321 311 305 269 280 264 222 207 204 189 195 211 215 230 227 224 233 244 242 244 247 248 248 254 259 259 260 261 257 262 283 279 293 288 284 289 291 282 279 282 283 280 274 264
336 332 318 300 313 316 324 194 183 189 189 194 191 214 224 240 220 235 239 228 232 237 240 253 261 266 268 270 268 267 280 274 275 285 291 294 288 285 291 291 300 284 271 261 261
342 338 339 322 332 218 70 158 158 165 173 185 193 194 229 219 199 213 204 198 206 229 257 266 263 262 265 264 259 274 284 287 279 284 293 296 285 293 289 317 295 274 272 266 262
348 347 347 333 42 103 120 144 150 155 180 163 183 207 210 185 169 169 184 206 219 260 265 262 254 257 254 266 280 289 293 298 286 289 298 288 291 283 317 296 287 276 269 270 266
353 8 10 50 37 112 132 141 145 158 153 145 166 166 165 171 163 182 210 242 252 256 240 234 243 253 263 292 302 303 306 309 303 311 290 290 283 295 304 297 298 285 280 276 272
22 29 64 91 89 113 142 134 145 152 137 135 152 146 146 151 159 167 185 220 249 247 216 230 256 273 287 294 297 298 304 314 314 317 307 298 300 333 324 294 296 294 288 277 270
58 64 81 98 94 126 147 139 127 135 137 158 127 127 142 158 151 162 185 261 261 249 251 260 268 283 276 294 293 294 303 327 326 310 313 317 294 347 326 316 315 320 310 289 274
63 67 80 94 107 128 117 105 129 129 113 122 135 125 126 137 165 173 206 259 271 279 296 264 292 296 285 299 313 306 283 309 318 331 318 315 304 333 342 332 318 313 317 302 303
71 76 85 93 115 139 141 102 105 98 99 99 116 111 116 128 138 175 245 288 308 337 321 296 279 289 312 327 311 288 314 304 302 328 306 301 302 326 343 333 323 315 316 306 291
83 75 87 99 113 129 124 110 108 100 99 103 101 100 106 109 111 101 9 356 354 330 302 278 282 305 313 303 313 321 301 302 307 316 304 309 313 323 352 338 321 318 313 313 303
76 76 83 104 106 111 122 110 104 105 104 89 97 93 91 75 59 37 13 358 340 327 302 299 300 338 306 300 311 318 313 306 308 296 302 307 307 293 349 349 350 339 330 317 307
85 93 92 109 101 104 113 114 105 113 100 90 91 78 64 48 34 24 4 349 339 326 318 310 327 319 315 309 299 304 299 302 307 307 310 311 313 261 338 354 352 346 326 328 321
83 99 110 115 104 107 115 116 114 105 89 62 52 49 41 28 28 17 8 352 339 322 322 353 345 326 324 312 318 318 319 288 295 319 327 347 299 335 349 8 4 8 12 358 336
81 92 107 117 119 121 122 114 105 56 61 37 42 48 31 29 11 10 360 349 346 331 316 342 334 329 343 314 311 298 271 263 290 256 293 356 283 301 3 7 9 8 21 12 3
85 88 95 93 99 100 94 86 43 40 35 32 45 30 23 26 17 5 356 356 351 346 337 330 306 323 345 334 310 318 71 145 96 186 326 340 313 340 8 359 3 10 22 27 29
72 88 87 90 74 54 22 13 55 59 26 32 29 18 16 7 6 2 357 357 10 8 3 358 343 304 330 356 328 344 116 67 59 273 189 342 337 3 12 7 5 9 19 39 41
38 41 63 60 32 16 13 360 61 61 81 70 21 11 6 3 351 349 350 0 6 9 349 359 30 10 1 13 7 39 45 55 165 184 240 358 341 356 13 10 8 21 25 44 59
37 29 28 20 21 4 29 71 90 83 58 26 354 3 12 6 355 353 351 357 1 2 3 353 22 15 3 7 27 28 80 112 144 75 84 358 319 328 12 19 22 22 32 44 50
33 33 33 33 31 47 87 89 90 75 26 4 9 4 355 358 2 360 1 1 4 355 355 344 322 25 7 18 39 62 17 296 359 51 339 306 289 299 16 19 23 22 31 37 53
28 38 41 46 58 55 76 83 75 44 31 20 8 357 350 349 348 358 6 5 6 358 354 339 322 1 40 37 47 52 45 36 82 13 176 250 275 353 12 12 18 28 26 30 40
9 15 25 22 24 28 66 71 61 39 15 359 358 4 3 357 342 2 358 7 10 10 3 348 320 322 23 38 31 35 41 44 19 271 228 193 268 359 12 12 24 25 31 34 35
354 352 2 358 17 35 52 42 32 23 13 360 357 357 355 352 348 351 353 349 4 8 5 5 355 320 291 325 0 355 12 19 351 254 259 232 252 99 3 21 15 25 32 39 39
348 338 331 330 347 354 356 10 4 359 357 355 356 358 356 357 351 330 342 341 341 353 358 354 4 2 280 300 310 321 329 339 347 244 255 255 284 259 287 307 313 342 21 42 43
333 332 328 306 297 312 327 337 348 346 354 350 346 343 350 352 349 347 344 335 332 342 347 346 297 320 307 290 300 313 309 302 302 299 267 288 289 279 255 278 279 259 320 34 46
299 313 321 321 284 277 303 314 316 327 336 341 343 337 330 336 337 333 336 342 334 333 337 335 318 326 325 267 298 302 274 269 283 293 303 303 309 296 265 255 270 251 248 280 321
286 291 299 308 301 291 293 288 294 305 314 325 330 335 336 332 331 325 317 314 310 324 329 328 330 326 283 312 312 300 328 252 297 304 301 307 324 317 294 266 255 245 232 249 253